Overview Statistics Trail Chart Weather Telemetry Raw packets
 

This is the latest recevied weather packets stored in our database for station/object IQ5VK-13. If no packets are shown the sender has not sent any weather packets the latest 10 day(s).

<< 1 2 3 4 >>
Time Temp. Humidity Pressure Rain* Wind** Luminosity Snow
1788573166 21.11° C 57% 1022.7 hPa - - - -
1788571966 21.11° C 57% 1022.8 hPa - - - -
1788570765 21.11° C 54% 1022.8 hPa - - - -
1788569565 21.11° C 56% 1022.8 hPa - - - -
1788567170 21.67° C 55% 1023 hPa - - - -
1788565969 21.67° C 55% 1023.2 hPa - - - -
1788564769 21.67° C 55% 1023.3 hPa - - - -
1788563569 21.67° C 55% 1023.5 hPa - - - -
1788562368 21.67° C 54% 1023.5 hPa - - - -
1788561168 22.22° C 53% 1023.6 hPa - - - -
1788559968 22.22° C 54% 1023.5 hPa - - - -
1788558768 22.22° C 55% 1023.6 hPa - - - -
1788557568 21.67° C 54% 1023.7 hPa - - - -
1788556367 21.67° C 57% 1023.8 hPa - - - -
1788555167 21.67° C 55% 1023.8 hPa - - - -
1788553966 22.22° C 50% 1023.9 hPa - - - -
1788550369 22.78° C 44% 1023.8 hPa - - - -
1788547965 22.78° C 46% 1023.6 hPa - - - -
1788545570 23.33° C 46% 1023.3 hPa - - - -
1788544370 23.89° C 45% 1023.1 hPa - - - -
1788543169 25° C 41% 1023.1 hPa - - - -
1788541969 26.11° C 41% 1023.2 hPa - - - -
1788540769 26.67° C 50% 1023.3 hPa - - - -
1788539568 27.22° C 47% 1023.4 hPa - - - -
1788538368 27.78° C 48% 1023.5 hPa - - - -

* Rain since midnight (hover to see other rain measurements)
** Current wind speed in m/s (hover to see current wind gust speed)